Santa Fe, NM

2:01 AM MDT on April 26, 2018 (GMT -0600)
Santa Fe Municipal

Weather History for KSAF - February, 2014

Change the Weather History Date:

Monday, February 3, 2014

  Actual Average Record
Temperature  
Mean Temperature 32 °F -  
Max Temperature 39 °F 0 °F 60 °F (2018)
Min Temperature 26 °F - -16 °F (2011)
Degree Days  
Heating Degree Days 32    
Moisture  
Dew Point 23 °F    
Average Humidity 72    
Maximum Humidity 100    
Minimum Humidity 41    
Precipitation  
Precipitation 0.00 in - - ()
Sea Level Pressure  
Sea Level Pressure 29.78 in    
Wind  
Wind Speed 4 mph (NNW)    
Max Wind Speed 13 mph    
Max Gust Speed -    
Visibility 6 miles    
Events Fog , Snow    
Averages and records for this station are not official NWS values.
T = Trace of Precipitation, MM = Missing Value Source: NWS Daily Summary

Daily Weather History Graph

Daily Weather History Graph

Search for Another Location

Airport or City:

Astronomy

Feb. 03, 2014 Rise Set
Actual Time 7:02 AM MST 5:34 PM MST
Civil Twilight 6:35 AM MST 6:00 PM MST
Nautical Twilight 6:05 AM MST 6:31 PM MST
Astronomical Twilight 5:35 AM MST 7:01 PM MST
Moon 9:17 AM MST (2/3) 10:15 PM MST (2/3)
Length of Visible Light 11h 25m
Length of Day
10h 31m
Waxing Crescent, 20% of the Moon is Illuminated
Feb 3
Waxing Crescent
Feb 6
First Quarter
Feb 14
Full
Feb 22
Last Quarter
Mar 1
New

Hourly Weather History & Observations

Time (MST) Temp. Windchill Dew Point Humidity Pressure Visibility Wind Dir Wind Speed Gust Speed Precip Events Conditions
12:53 AM 28.0 °F 21.7 °F 12.9 °F 53% 29.89 in 10.0 mi North 5.8 mph - N/A   Scattered Clouds
1:53 AM 28.0 °F 22.8 °F 14.0 °F 56% 29.89 in 10.0 mi NNE 4.6 mph - N/A   Scattered Clouds
2:53 AM 26.1 °F 21.9 °F 14.0 °F 60% 29.88 in 10.0 mi NNE 3.5 mph - N/A   Clear
3:53 AM 26.1 °F 18.4 °F 14.0 °F 60% 29.87 in 10.0 mi NNE 6.9 mph - N/A   Clear
4:53 AM 26.1 °F - 14.0 °F 60% 29.88 in 10.0 mi Calm Calm - N/A   Partly Cloudy
5:53 AM 27.0 °F - 15.1 °F 61% 29.89 in 10.0 mi Calm Calm - N/A   Overcast
6:53 AM 28.0 °F - 17.1 °F 63% 29.89 in 10.0 mi Calm Calm - N/A   Overcast
7:53 AM 28.9 °F - 19.0 °F 67% 29.89 in 10.0 mi Calm Calm - N/A   Overcast
8:53 AM 35.1 °F - 18.0 °F 50% 29.89 in 10.0 mi Calm Calm - N/A   Scattered Clouds
9:53 AM 36.0 °F - 18.0 °F 48% 29.90 in 10.0 mi Calm Calm - N/A   Partly Cloudy
10:53 AM 37.9 °F 35.5 °F 17.1 °F 43% 29.88 in 10.0 mi West 3.5 mph - N/A   Overcast
11:53 AM 39.0 °F 33.4 °F 19.0 °F 45% 29.84 in 10.0 mi WSW 8.1 mph - N/A   Overcast
12:53 PM 39.0 °F - 19.0 °F 45% 29.78 in 10.0 mi North - - N/A   Overcast
1:53 PM 39.0 °F 35.7 °F 19.9 °F 46% 29.73 in 10.0 mi NNE 4.6 mph - N/A   Overcast
2:53 PM 39.9 °F - 19.0 °F 43% 29.72 in 10.0 mi Calm Calm - N/A   Mostly Cloudy
3:53 PM 39.9 °F - 18.0 °F 41% 29.70 in 10.0 mi Calm Calm - N/A   Scattered Clouds
4:53 PM 39.0 °F - 18.0 °F 43% 29.70 in 10.0 mi Calm Calm - N/A   Overcast
5:53 PM 37.9 °F - 17.1 °F 43% 29.69 in 10.0 mi Calm Calm - N/A   Partly Cloudy
6:53 PM 33.1 °F 23.9 °F 19.9 °F 59% 29.72 in 10.0 mi NNE 12.7 mph - N/A   Overcast
7:53 PM 32.0 °F 22.5 °F 24.1 °F 73% 29.73 in 10.0 mi North 12.7 mph - N/A   Scattered Clouds
8:53 PM 32.0 °F 25.6 °F 25.0 °F 75% 29.72 in 10.0 mi NNW 6.9 mph - N/A   Overcast
9:07 PM 32.0 °F 25.6 °F 26.1 °F 79% 29.75 in 2.5 mi North 6.9 mph - 0.00 in Snow Light Snow
9:16 PM 30.9 °F 27.5 °F 27.0 °F 85% 29.76 in 1.5 mi Variable 3.5 mph - 0.00 in Snow Light Snow
9:31 PM 30.9 °F 27.5 °F 28.0 °F 89% 29.76 in 2.0 mi NW 3.5 mph - 0.00 in Snow Light Snow
9:39 PM 30.0 °F 25.2 °F 28.0 °F 92% 29.76 in 1.0 mi NW 4.6 mph - 0.00 in Snow Light Snow
9:46 PM 30.0 °F 25.2 °F 28.9 °F 96% 29.76 in 0.8 mi WNW 4.6 mph - 0.00 in Snow Light Snow
9:53 PM 30.0 °F 23.2 °F 28.9 °F 96% 29.72 in 0.8 mi NW 6.9 mph - 0.00 in Snow Light Snow
10:01 PM 30.0 °F 24.1 °F 28.9 °F 96% 29.76 in 0.8 mi West 5.8 mph - 0.00 in Snow Light Snow
10:17 PM 30.0 °F 25.2 °F 28.9 °F 96% 29.76 in 0.5 mi WSW 4.6 mph - 0.00 in Fog , Snow Snow
10:50 PM 30.2 °F 24.3 °F 28.4 °F 93% 29.74 in 0.8 mi ENE 5.8 mph - 0.00 in Snow Light Snow
10:53 PM 30.0 °F 25.2 °F 28.9 °F 96% 29.70 in 1.0 mi ENE 4.6 mph - 0.00 in Snow Light Snow
10:58 PM 30.0 °F - 28.9 °F 96% 29.74 in 3.0 mi Calm Calm - 0.00 in Snow Light Snow
11:07 PM 30.0 °F 25.2 °F 28.9 °F 96% 29.74 in 7.0 mi ENE 4.6 mph - 0.00 in Snow Light Snow
11:22 PM 30.0 °F - 28.9 °F 96% 29.74 in 4.0 mi Calm Calm - 0.00 in Snow Light Snow
11:29 PM 30.0 °F - 28.9 °F 96% 29.73 in 2.5 mi Calm Calm - 0.00 in Snow Light Snow
11:40 PM 30.0 °F - 28.9 °F 96% 29.73 in 3.0 mi Calm Calm - 0.00 in Snow Light Snow
11:50 PM 28.4 °F 22.2 °F 28.4 °F 100% 29.73 in 1.8 mi West 5.8 mph - 0.00 in Snow Light Snow
11:53 PM 28.9 °F 23.9 °F 28.0 °F 96% 29.69 in 1.0 mi West 4.6 mph - 0.00 in Snow Light Snow
11:57 PM 30.0 °F 25.2 °F 28.9 °F 96% 29.73 in 0.5 mi West 4.6 mph - 0.00 in Fog , Snow Snow